Address 0x36c93f942562c5f6155e4b0fdc3d1bdf899527a5 3

Txn Hash Method
Block
From
To
Value [Txn Fee]
0xc0f53899de4686d97896f3c438eb7131cb14e69edc09f63e0c23da5aa1dccbf8Dispatch183408052023-01-26 4:44:396 days 11 hrs ago0x36c93f942562c5f6155e4b0fdc3d1bdf899527a5OUT 0xcc737a94fecaec165abcf12ded095bb13f0376850 AVAX0.0017311134
0xdd5e0dce2e34a60b1db825118484fc0b8e1512211be10ad8c2fa5ec229e80f1aDispatch183220352023-01-25 15:14:117 days 38 mins ago0x36c93f942562c5f6155e4b0fdc3d1bdf899527a5OUT 0xcc737a94fecaec165abcf12ded095bb13f0376850 AVAX0.0015988830
0x96b075440fb907f30498f68756d455e2ecdad3b95889f5761e8f0ff60a030bc9Dispatch177047622023-01-05 14:48:0527 days 1 hr ago0x36c93f942562c5f6155e4b0fdc3d1bdf899527a5OUT0xc507a7c848b59469cc44a3653f8a582aa8bec71e0 AVAX0.00156542133
0xfacfe43195ca005b2401666db2f7e1297085d310c999a2ab608fa976df346c1dDispatch176954092023-01-05 9:26:3027 days 6 hrs ago0x36c93f942562c5f6155e4b0fdc3d1bdf899527a5OUT0xc507a7c848b59469cc44a3653f8a582aa8bec71e0 AVAX0.0015195232
0x6209fe1fd2cc71a74bf2f50f43133ffdcd1bdbff61c41c9f6f92447a0f7ade56Dispatch176854602023-01-05 3:42:1627 days 12 hrs ago0x36c93f942562c5f6155e4b0fdc3d1bdf899527a5OUT0xc507a7c848b59469cc44a3653f8a582aa8bec71e0 AVAX0.0015746430
0xe9ae3d0ac86bd027a36c1451b5ca4d04d6d592661a2a6c7086fac36cfb4a56b9Withdraw99115002022-05-20 11:39:46257 days 4 hrs ago0x36c93f942562c5f6155e4b0fdc3d1bdf899527a5OUT0xc63b35478c63a8d4598d72565fa80f62c6f518230 AVAX0.00307238427
0x1d0780d92dc5dfda2100c81b75b65fde222e1b54a1fa2b87de5796d0b7390e68Withdraw99111102022-05-20 11:26:45257 days 4 hrs ago0x36c93f942562c5f6155e4b0fdc3d1bdf899527a5OUT0xc63b35478c63a8d4598d72565fa80f62c6f518230 AVAX0.0030720627
0xa5bcd5d38ddd11560864a7f3388226e4849f8d35adc80dd4f776b97ee568a229Withdraw99107132022-05-20 11:13:31257 days 4 hrs ago0x36c93f942562c5f6155e4b0fdc3d1bdf899527a5OUT0xc63b35478c63a8d4598d72565fa80f62c6f518230 AVAX0.0029582826
0xcbb68c41884f29530eda7c53ee6fa0d53677a8fcceebfd7c760630e808a62a5cHarvest99094682022-05-20 10:32:01257 days 5 hrs ago0x36c93f942562c5f6155e4b0fdc3d1bdf899527a5OUT0xc63b35478c63a8d4598d72565fa80f62c6f518230 AVAX0.0024142326
0x9785bbdfaea806bcf09bc8865c26cb6f46ada246111c963fa9ab5205003fae99Harvest99091672022-05-20 10:22:00257 days 5 hrs ago0x36c93f942562c5f6155e4b0fdc3d1bdf899527a5OUT0xc63b35478c63a8d4598d72565fa80f62c6f518230 AVAX0.00250708527
0x21e66406cfd6adaaa7f848da8c43238b30cd4cb31ec109b77719d2eec158f3aeHarvest99088682022-05-20 10:12:01257 days 5 hrs ago0x36c93f942562c5f6155e4b0fdc3d1bdf899527a5OUT0xc63b35478c63a8d4598d72565fa80f62c6f518230 AVAX0.00250708527
0x30603828585b47a3407501525368e33e1b1ce5453a7c90fc72383c034ec99e18Harvest99088682022-05-20 10:12:01257 days 5 hrs ago0x36c93f942562c5f6155e4b0fdc3d1bdf899527a5OUT0xc63b35478c63a8d4598d72565fa80f62c6f518230 AVAX0.00319672626
0x028aff30ce0169eff36f4d684b1b1ca6f68f2b8957a3d55966a6c1066039fdd8Harvest99085872022-05-20 10:02:39257 days 5 hrs ago0x36c93f942562c5f6155e4b0fdc3d1bdf899527a5OUT0xc63b35478c63a8d4598d72565fa80f62c6f518230 AVAX0.0024142326
0x686b9a4ab5bdeafdf25531c5083ab3d7397b03bf847c9a3d7d683c9c9c2ce84cStake99080582022-05-20 9:45:01257 days 6 hrs ago0x36c93f942562c5f6155e4b0fdc3d1bdf899527a5OUT0xc63b35478c63a8d4598d72565fa80f62c6f518230 AVAX0.00316287426
0xe3aae5b49fdda63b7cd9b36438b2a4cb5796d72594bf09f50f0b277c7ecba5ccWithdraw99075392022-05-20 9:27:40257 days 6 hrs ago0x36c93f942562c5f6155e4b0fdc3d1bdf899527a5OUT0xc63b35478c63a8d4598d72565fa80f62c6f518230 AVAX0.00295890426
0x4ce27f6b9290bd6729839efb8135bde1352e5038cbdd087c50258ebf14776941Stake99070892022-05-20 9:12:38257 days 6 hrs ago0x36c93f942562c5f6155e4b0fdc3d1bdf899527a5OUT0xc63b35478c63a8d4598d72565fa80f62c6f518230 AVAX0.00335311626
0xfa383b592a3875745b0481583f1cbd4c60407bb2b349d88ea16d6886a91f0bd2Stake99063762022-05-20 8:48:41257 days 7 hrs ago0x36c93f942562c5f6155e4b0fdc3d1bdf899527a5OUT0xc63b35478c63a8d4598d72565fa80f62c6f518230 AVAX0.00458627427
0x6a2f36f299ea7ca2b1bac3f8ceff483768691bb34e40009894160ea26e1c721bWithdraw99063752022-05-20 8:48:39257 days 7 hrs ago0x36c93f942562c5f6155e4b0fdc3d1bdf899527a5OUT0xc63b35478c63a8d4598d72565fa80f62c6f518230 AVAX0.00106745626
0x5b16e641af21234f7bcb787eb9a52d52b3a08f3b48ff4006a06e41dc7331e55fStake99051942022-05-20 8:09:16257 days 7 hrs ago0x36c93f942562c5f6155e4b0fdc3d1bdf899527a5OUT0xc63b35478c63a8d4598d72565fa80f62c6f518230 AVAX0.00348208227
0xb89e48af45abe2d35c9d8d72f450197420fe9666cec8442a0a682d4f18554479Redeem99047312022-05-20 7:53:50257 days 7 hrs ago0x36c93f942562c5f6155e4b0fdc3d1bdf899527a5OUT0x83159f801ff2352db088ed2792c91ae5170195f80 AVAX0.00261929727
0x925193497cf4a7f5f38dca8cc63765f7de16f419efddff6e3a215eb449ec75bbApprove99046372022-05-20 7:50:41257 days 8 hrs ago0x36c93f942562c5f6155e4b0fdc3d1bdf899527a5OUT 0xaef954281c4cd97a3c3b9c5f7817c5202f0af2440 AVAX0.00122223426
0x681a026762ebbab2697fb2ddc27157806814c9669de6080c2e73bdf465e08d1bApprove99042912022-05-20 7:39:06257 days 8 hrs ago0x36c93f942562c5f6155e4b0fdc3d1bdf899527a5OUT 0x3a16bea96a801137643e107f260fd63c546198b40 AVAX0.00122223426
0x672d7664e9b68e1edae681f18e227fffaee9a774e758f0315aacb6273d9367cfDeposit99041102022-05-20 7:33:05257 days 8 hrs ago0x36c93f942562c5f6155e4b0fdc3d1bdf899527a5OUT0x83159f801ff2352db088ed2792c91ae5170195f80 AVAX0.00247749327
0x5ca602a70c4ae2dbe33deebca56285ff58317a8be9d126d0001ca4089ccc396bApprove99037602022-05-20 7:21:25257 days 8 hrs ago0x36c93f942562c5f6155e4b0fdc3d1bdf899527a5OUT 0xcfc31c8d876464dcd932b1ec16eeb8fe64fc91be0 AVAX0.00126924327
0x2ef6b23bc9827d7399433be43cc336bf693a16b4c545ac3db9603ed4904c22b6Add Liquidity99024482022-05-20 6:37:30257 days 9 hrs ago0x36c93f942562c5f6155e4b0fdc3d1bdf899527a5OUT0x34411e28855ffec8be9d1089a147e9b3ba0182890 AVAX0.00575996226
[ Download CSV Export 
Parent Txn Hash Block From To Value
Loading

Contract Name:
0

Compiler Version
0

Optimization Enabled:
0

Other Settings:
-NA-
Block Transaction Gas Used Reward
Age Block Fee Address BC Fee Address Voting Power Jailed Incoming
Block Uncle Number Difficulty Gas Used Reward
Loading